[[{"header":{"parameterUnit":"m.s-1","parameterCategory":1,"la1":30.2991,"la2":30.254,"lo1":-89.0895,"lo2":-89.0444,"dy":0.0017,"dx":0.0017,"nx":28,"ny":28,"refTime":"2023-11-13T09:00:00:Z","depth":0,"parameterNumber":2,"parameterNumberName":"U-component_of_WINDS"},"data":[0,0,0,0,0,0,0,0,0,0,0,0,0,0,0,0,0,0,0,0,0,0,0,0,0,0,0,0,0,0,0,0,0,0,0,0,0,0,0,0,0,0,0,0,0,0,0,0,0,0,0,0,0,0,0,0,0,0,-6.17,-6.1701,0,-6.1794,-6.1795,-6.1796,-6.1664,-6.1659,-6.1654,-6.165,-6.1745,-6.1751,-6.1758,0,0,0,0,0,0,0,0,0,0,0,0,0,-6.1402,-6.1408,-6.17,-6.1701,-6.1702,-6.1794,-6.1795,-6.1797,-6.1665,-6.1659,-6.1653,-6.1648,-6.1742,-6.1751,-6.1759,0,0,0,0,0,0,0,0,0,0,0,0,0,-6.1517,-6.141,-6.1699,-6.1647,-6.1643,-6.1794,-6.1795,-6.1797,-6.1666,-6.1659,-6.1652,-6.1645,-6.174,-6.175,-6.176,-6.1965,0,0,-6.1792,-6.1796,0,0,0,0,0,0,0,0,-6.1511,-6.1528,-6.1654,-6.1651,-6.1647,-6.171,-6.1725,-6.1853,-6.1668,-6.1657,-6.165,-6.1642,-6.1739,-6.1749,-6.1782,-6.197,-6.1974,-6.1793,-6.1799,-6.1803,-6.1806,0,0,0,0,0,0,0,-6.1503,-6.1523,-6.1737,-6.1656,-6.1652,-6.1618,-6.1627,-6.1749,-6.1736,-6.1658,-6.1648,-6.1661,-6.1735,-6.1772,-6.1783,-6.1975,-6.1792,-6.1801,-6.1808,-6.1812,-6.2336,-6.2343,0,0,0,0,0,0,-6.1502,-6.1518,-6.1734,-6.174,-6.156,-6.1629,-6.1639,-6.1697,-6.1735,-6.1734,-6.1667,-6.1655,-6.1758,-6.1771,-6.1786,-6.2029,-6.1803,-6.1813,-6.1819,-6.2328,-6.2337,-6.2346,0,0,0,0,0,0,-6.1496,-6.1522,-6.173,-6.1626,-6.165,-6.1642,-6.1708,-6.1703,-6.1739,-6.1742,-6.1739,-6.1707,-6.1753,-6.1771,-6.1922,-6.203,-6.1818,-6.1827,-6.2319,-6.2331,-6.2341,-6.2517,0,0,0,0,0,0,-6.1488,-6.1521,-6.16,-6.1629,-6.1656,-6.1866,-6.1715,-6.1709,-6.1758,-6.1742,-6.1779,-6.1778,-6.1749,-6.1907,-6.1932,-6.2041,-6.1835,-6.2309,-6.2324,-6.2338,-6.2501,-6.2533,-6.256,0,0,0,0,0,-6.1478,-6.1645,-6.1604,-6.1631,-6.1755,-6.1872,-6.1888,-6.1851,-6.1767,-6.1845,-6.1847,-6.1777,-6.2014,-6.1924,-6.1951,-6.2064,-6.2302,-6.232,-6.2337,-6.2488,-6.2527,-6.2559,0,0,0,0,0,0,-6.1627,-6.1648,-6.1603,-6.1785,-6.1828,-6.185,-6.1948,-6.1893,-6.1961,-6.1944,-6.1895,-6.1904,-6.2065,-6.2079,-6.1978,-6.2264,-6.2144,-6.2168,-6.225,-6.2286,-6.2315,-6.2309,-6.1844,0,0,0,0,0,-6.1682,-6.1777,-6.1788,-6.1948,-6.1972,-6.1957,-6.2006,-6.1975,-6.2017,-6.2034,-6.2047,-6.209,-6.2174,-6.2231,-6.2308,-6.2502,-6.2508,-6.2593,-6.2623,-6.2647,-6.2668,-6.2771,-6.2809,-6.2402,-6.2402,-6.2402,0,0,-6.1795,-6.1817,-6.188,-6.1978,-6.2008,-6.2107,-6.1973,-6.2082,-6.2155,-6.2051,-6.2194,-6.2205,-6.2249,-6.2423,-6.25,-6.2439,-6.2781,-6.2669,-6.2688,-6.2696,-6.2793,-6.2832,-6.2866,-6.2414,-6.2412,-6.241,0,0,-6.2051,-6.2078,-6.2214,-6.2246,-6.2293,-6.2282,-6.2315,-6.2345,-6.2348,-6.2491,-6.2415,-6.25,-6.2646,-6.2681,-6.2718,-6.2988,-6.2926,-6.3014,-6.3168,-6.3269,-6.3301,-6.3329,-6.3426,-6.3461,-6.3035,-6.3036,-6.3036,0,-6.2186,-6.2332,-6.229,-6.2406,-6.2451,-6.2362,-6.2499,-6.2532,-6.2602,-6.2635,-6.2566,-6.2748,-6.2771,-6.2951,-6.3017,-6.305,-6.3086,-6.301,-6.33,-6.3328,-6.3354,-6.3445,-6.3482,-6.3046,-6.3045,-6.3044,-6.3043,0,-6.2495,-6.2598,-6.2702,-6.2772,-6.2829,-6.2955,-6.2931,-6.2993,-6.2956,-6.2952,-6.3099,-6.3124,-6.3205,-6.3245,-6.321,-6.3421,-6.3382,-6.3308,-6.3186,-6.3404,-6.3489,-6.3524,-6.3061,-6.3057,-6.3054,-6.3052,0,0,-6.285,-6.2895,-6.2934,-6.2965,-6.301,-6.3088,-6.3209,-6.3289,-6.3344,-6.3395,-6.3495,-6.362,-6.3552,-6.3594,-6.3562,-6.3651,-6.3863,-6.3565,-6.3566,-6.3621,-6.4097,-6.4153,-6.4195,-6.3822,-6.3828,-6.3833,-6.4093,0,-6.3106,-6.3317,-6.3283,-6.3486,-6.358,-6.3496,-6.3602,-6.364,-6.3639,-6.3718,-6.3716,-6.3806,-6.3709,-6.3734,-6.3818,-6.382,-6.3958,-6.38,-6.3914,-6.3919,-6.3907,-6.4239,-6.4299,-6.4543,-6.4126,-6.4132,-6.4136,0,-6.3434,-6.3498,-6.3712,-6.3742,-6.378,-6.3876,-6.3946,-6.4023,-6.4064,-6.4057,-6.4105,-6.4056,-6.4176,-6.4051,-6.4216,-6.4109,-6.4153,-6.4161,-6.417,-6.4179,-6.4041,-6.4258,-6.462,-6.4657,-6.4188,-6.4184,-6.418,0,-6.3672,-6.3811,-6.3957,-6.3986,-6.4025,-6.4094,-6.4113,-6.4147,-6.4198,-6.4259,-6.4291,-6.4365,-6.4406,-6.4464,-6.4437,-6.4349,-6.4607,-6.448,-6.4604,-6.4605,-6.4662,-6.4659,-6.5037,-6.469,-6.469,-6.4689,-6.4688,0,-6.3963,-6.4097,-6.4064,-6.4154,-6.4302,-6.426,-6.4407,-6.4415,-6.4447,-6.4536,-6.4467,-6.4553,-6.4511,-6.4592,-6.4571,-6.4711,-6.4729,-6.4727,-6.472,-6.4734,-6.4734,-6.4763,-6.4745,-6.4699,-6.4697,-6.4695,-6.4693,0,-6.4254,-6.4238,-6.4391,-6.4415,-6.4424,-6.4532,-6.4552,-6.4635,-6.4629,-6.4743,-6.4767,-6.4757,-6.485,-6.4828,-6.4929,-6.4914,-6.509,-6.5061,-6.5077,-6.507,-6.5196,-6.5185,-6.5605,-6.5658,-6.5277,-6.5281,-6.5284,0,-6.4441,-6.4542,-6.4577,-6.4633,-6.4658,-6.4747,-6.4799,-6.4761,-6.4817,-6.4872,-6.4949,-6.5036,-6.5103,-6.5256,-6.5257,-6.5334,-6.5306,-6.5448,-6.5317,-6.5328,-6.5309,-6.5304,-6.5314,-6.5475,-6.5479,-6.5483,-6.5486,0,-6.4775,-6.4762,-6.4838,-6.4914,-6.4977,-6.5033,-6.5083,-6.5132,-6.5098,-6.5165,-6.5259,-6.5312,-6.5415,-6.5503,-6.5573,-6.5591,-6.5534,-6.5527,-6.556,-6.5575,-6.558,-6.558,-6.5149,-6.5518,-6.5514,-6.5512,-6.551,-6.5509,-6.502,-6.5106,-6.5144,-6.5232,-6.5266,-6.5314,-6.5394,-6.5398,-6.5476,-6.5558,-6.5531,-6.5639,-6.5677,-6.5767,-6.5794,-6.5877,-6.5823,-6.5871,-6.5883,-6.5895,-6.5911,-6.5567,-6.589,-6.5889,-6.5888,-6.5887,-6.5886,0,-6.535,-6.5371,-6.5452,-6.5525,-6.5594,-6.5534,-6.5586,-6.5647,-6.5744,-6.5785,-6.5853,-6.5961,-6.6045,-6.6053,-6.6132,-6.6197,-6.6173,-6.6219,-6.6214,-6.622,-6.5955,-6.5919,-6.6238,-6.6238,-6.6238,-6.6238,-6.6238,-6.6237,-6.553,-6.5673,-6.5665,-6.5823,-6.5842,-6.5948,-6.5983,-6.6027,-6.606,-6.6184,-6.6254,-6.6259,-6.6286,-6.6367,-6.6441,-6.6441,-6.6473,-6.653,-6.6521,-6.6273,-6.6238,-6.6205,-6.6171,-6.6538,-6.6538,-6.6778,-6.678,-6.6782]},{"header":{"parameterUnit":"m.s-1","parameterCategory":1,"la1":30.2991,"la2":30.254,"lo1":-89.0895,"lo2":-89.0444,"dy":0.0017,"dx":0.0017,"nx":28,"ny":28,"refTime":"2023-11-13T09:00:00:Z","depth":0,"parameterNumber":3,"parameterNumberName":"V-component_of_WINDS"},"data":[0,0,0,0,0,0,0,0,0,0,0,0,0,0,0,0,0,0,0,0,0,0,0,0,0,0,0,0,0,0,0,0,0,0,0,0,0,0,0,0,0,0,0,0,0,0,0,0,0,0,0,0,0,0,0,0,0,0,-3.0833,-3.0833,0,-3.0877,-3.0877,-3.0878,-3.0861,-3.086,-3.0859,-3.0858,-3.0901,-3.0903,-3.0905,0,0,0,0,0,0,0,0,0,0,0,0,0,-3.0731,-3.0733,-3.0833,-3.0833,-3.0834,-3.0877,-3.0877,-3.0878,-3.0861,-3.0859,-3.0858,-3.0857,-3.09,-3.0903,-3.0905,0,0,0,0,0,0,0,0,0,0,0,0,0,-3.0775,-3.0734,-3.0833,-3.0831,-3.0831,-3.0877,-3.0877,-3.0878,-3.0861,-3.0859,-3.0858,-3.0857,-3.09,-3.0903,-3.0906,-3.0956,0,0,-3.0916,-3.0917,0,0,0,0,0,0,0,0,-3.0773,-3.0779,-3.083,-3.0831,-3.0831,-3.0862,-3.0857,-3.0904,-3.0861,-3.085,-3.0858,-3.0856,-3.0889,-3.0893,-3.0905,-3.0958,-3.096,-3.0916,-3.0918,-3.0919,-3.092,0,0,0,0,0,0,0,-3.077,-3.0777,-3.085,-3.0831,-3.0832,-3.0826,-3.0831,-3.0866,-3.0877,-3.085,-3.0849,-3.0855,-3.0889,-3.0902,-3.0906,-3.096,-3.0916,-3.0919,-3.092,-3.0922,-3.1055,-3.1056,0,0,0,0,0,0,-3.0767,-3.0775,-3.0849,-3.0852,-3.0798,-3.083,-3.0835,-3.0853,-3.0877,-3.0879,-3.0856,-3.0854,-3.0897,-3.0902,-3.0907,-3.0966,-3.0919,-3.0922,-3.0924,-3.1053,-3.1055,-3.1057,0,0,0,0,0,0,-3.0765,-3.0774,-3.0847,-3.0813,-3.0822,-3.0833,-3.0854,-3.0855,-3.0868,-3.0881,-3.0883,-3.0867,-3.0896,-3.0903,-3.0943,-3.0967,-3.0923,-3.0926,-3.1051,-3.1054,-3.1056,-3.1085,0,0,0,0,0,0,-3.0762,-3.0773,-3.0793,-3.0813,-3.0824,-3.0884,-3.0856,-3.0857,-3.0873,-3.0871,-3.0892,-3.0894,-3.0895,-3.0939,-3.0947,-3.0971,-3.0929,-3.1049,-3.1052,-3.1055,-3.1082,-3.1088,-3.1093,0,0,0,0,0,-3.0759,-3.08,-3.0794,-3.0803,-3.0849,-3.0885,-3.0891,-3.0892,-3.0875,-3.0895,-3.0903,-3.0893,-3.0963,-3.0943,-3.0952,-3.0977,-3.1047,-3.1051,-3.1055,-3.1079,-3.1087,-3.1093,0,0,0,0,0,0,-3.0782,-3.0802,-3.0797,-3.0846,-3.0864,-3.0882,-3.0907,-3.09,-3.0923,-3.092,-3.092,-3.0925,-3.0967,-3.0976,-3.0953,-3.1026,-3.1003,-3.1008,-3.1018,-3.1025,-3.1031,-3.1028,-3.0931,0,0,0,0,0,-3.0793,-3.0821,-3.0837,-3.0879,-3.0888,-3.0896,-3.0912,-3.0911,-3.093,-3.0937,-3.0949,-3.0966,-3.0992,-3.1009,-3.1034,-3.1083,-3.1086,-3.1104,-3.111,-3.1114,-3.1119,-3.1144,-3.1152,-3.1069,-3.1069,-3.1069,0,0,-3.0816,-3.083,-3.0849,-3.0884,-3.0898,-3.0926,-3.0903,-3.0934,-3.0955,-3.0942,-3.0981,-3.099,-3.1009,-3.1054,-3.1074,-3.1063,-3.1143,-3.1119,-3.1123,-3.1125,-3.1148,-3.1156,-3.1163,-3.1071,-3.1071,-3.107,0,0,-3.0872,-3.0886,-3.0922,-3.0936,-3.0957,-3.0962,-3.097,-3.0989,-3.0994,-3.1034,-3.1024,-3.1048,-3.1093,-3.1107,-3.112,-3.1179,-3.117,-3.1187,-3.1216,-3.124,-3.1247,-3.1253,-3.1273,-3.128,-3.1191,-3.1191,-3.1191,0,-3.0898,-3.0941,-3.0941,-3.0973,-3.0988,-3.0977,-3.1012,-3.1026,-3.1054,-3.1064,-3.1051,-3.1106,-3.1119,-3.1165,-3.1179,-3.1191,-3.1199,-3.1184,-3.1246,-3.1252,-3.1257,-3.1276,-3.1284,-3.1193,-3.1193,-3.1193,-3.1193,0,-3.097,-3.1,-3.1026,-3.1053,-3.1071,-3.1105,-3.1109,-3.1127,-3.1124,-3.1129,-3.1168,-3.1183,-3.1209,-3.122,-3.1218,-3.1266,-3.1258,-3.1246,-3.1223,-3.1267,-3.1285,-3.1292,-3.1196,-3.1195,-3.1195,-3.1194,0,0,-3.1044,-3.1069,-3.1079,-3.109,-3.1112,-3.1134,-3.1166,-3.1192,-3.1207,-3.1226,-3.1252,-3.1289,-3.1277,-3.1292,-3.129,-3.1312,-3.1355,-3.1296,-3.1297,-3.1306,-3.1408,-3.1417,-3.1425,-3.135,-3.1351,-3.1352,-3.1406,0,-3.1101,-3.1157,-3.1157,-3.1209,-3.1236,-3.1225,-3.1252,-3.1268,-3.1273,-3.1295,-3.1301,-3.1327,-3.131,-3.1318,-3.1339,-3.1346,-3.1376,-3.1342,-3.1373,-3.1374,-3.1368,-3.1435,-3.1445,-3.1495,-3.1413,-3.1414,-3.1415,0,-3.1175,-3.1196,-3.1251,-3.1266,-3.1277,-3.1302,-3.1325,-3.1347,-3.1364,-3.1366,-3.1381,-3.1376,-3.1407,-3.1383,-3.1425,-3.1402,-3.1414,-3.1419,-3.1421,-3.1424,-3.1397,-3.1438,-3.1511,-3.1518,-3.1426,-3.1425,-3.1424,0,-3.1222,-3.1264,-3.1301,-3.1311,-3.1331,-3.1348,-3.1357,-3.1372,-3.1387,-3.1407,-3.1416,-3.1439,-3.1452,-3.1469,-3.147,-3.1452,-3.1511,-3.1488,-3.1513,-3.1513,-3.1526,-3.1525,-3.1601,-3.1535,-3.1535,-3.1535,-3.1535,0,-3.1285,-3.1319,-3.1322,-3.1345,-3.1381,-3.138,-3.1416,-3.1423,-3.1437,-3.146,-3.1452,-3.1473,-3.1473,-3.1495,-3.1496,-3.153,-3.1536,-3.1537,-3.1537,-3.1538,-3.1538,-3.1546,-3.1542,-3.1537,-3.1536,-3.1536,-3.1536,0,-3.1344,-3.1348,-3.1387,-3.1402,-3.1407,-3.1433,-3.1445,-3.1466,-3.147,-3.1499,-3.1506,-3.1512,-3.1538,-3.154,-3.1569,-3.157,-3.161,-3.1606,-3.1605,-3.1604,-3.1629,-3.1626,-3.1712,-3.1723,-3.1651,-3.1651,-3.1652,0,-3.1384,-3.1409,-3.1426,-3.1441,-3.1451,-3.1475,-3.149,-3.1489,-3.1505,-3.1525,-3.1543,-3.1567,-3.1587,-3.1627,-3.1634,-3.1656,-3.1652,-3.168,-3.1655,-3.1655,-3.1651,-3.1649,-3.1651,-3.1685,-3.1686,-3.1687,-3.1687,0,-3.1454,-3.1454,-3.1476,-3.1498,-3.1516,-3.1533,-3.155,-3.1562,-3.1563,-3.1581,-3.1606,-3.1621,-3.1651,-3.1674,-3.1695,-3.1703,-3.1695,-3.1695,-3.1702,-3.1703,-3.17,-3.1701,-3.1617,-3.1693,-3.1693,-3.1692,-3.1692,-3.1692,-3.1504,-3.1525,-3.154,-3.1564,-3.1576,-3.1591,-3.1611,-3.1617,-3.1638,-3.1662,-3.166,-3.1688,-3.1702,-3.1729,-3.1739,-3.176,-3.175,-3.176,-3.1763,-3.1765,-3.1767,-3.1697,-3.1764,-3.1764,-3.1763,-3.1763,-3.1763,0,-3.1573,-3.1581,-3.1603,-3.1626,-3.1644,-3.1635,-3.1652,-3.1668,-3.1692,-3.1706,-3.1725,-3.1753,-3.1776,-3.1783,-3.1805,-3.182,-3.1817,-3.1826,-3.1824,-3.1826,-3.1775,-3.1767,-3.1828,-3.1828,-3.1828,-3.1828,-3.1828,-3.1828,-3.1611,-3.1646,-3.1647,-3.1687,-3.1695,-3.1722,-3.1732,-3.1746,-3.1756,-3.1788,-3.1807,-3.1812,-3.1823,-3.1845,-3.1864,-3.1866,-3.1874,-3.1884,-3.1884,-3.1836,-3.183,-3.1824,-3.1816,-3.1886,-3.1886,-3.1933,-3.1933,-3.1934]}]]